STARLINK-31739, 59766

Orbit data source: Space-Track

STARLINK-31739, 59766 is a payload satellite owned by SpaceX/Seattle (US) in LEO that was launched on Tue, 14 May 2024 UTC via an FALCON 9 launch vehicle from the Air Force Western Test Range (AFWTR). Payload-class satellites include a variety of spacecraft equipped with specific instruments for various scientific and technological missions. These include communications satellites like Starlink; space stations such as the ISS; scientific satellites like the Hubble; Earth observation satellites from companies like Planet Labs, Umbra, and HawkEye 360; GPS; miniature CubeSats for education and research; and military/defense satellites.

Loading next visibility...
Identifier
59766, 2024-091P
Orbit
LEO
Country
Flag of USUS
Related business
Manufacturer
SpaceX/Seattle
Mission
Operational Commercial Communications
Bus & Motor
STARLINK V2M, Unknown motor
Mass
730 kg wet, ~700 kg dry
Launch date (UTC)
2024-05-14 (2 years ago)
Launch vehicle
FALCON 9
Launch site
Air Force Western Test Range (AFWTR)
Object type
Payload
Rocket body
Debris
Shape & HBR
Box + 2 Pan, 17.7 m
Radar Cross Section
33.884 m², Large (>1 m²)

Expand to show TLE details & history
Last TLE update: 2 days ago

TLE from 2 days ago
0 STARLINK-31739
1 59766U 24091P   26171.41591837 -.00000073  00000-0  96445-5 0  9998
2 59766  53.1612 266.8039 0001038  81.5008 278.6110 15.30198561118779
Epoch: 2026-06-20T09:58Z
TLE epoch observation values (Epoch: 2026-06-20T09:58:55.347Z)
Latitude
-0.00004°
Longitude
-151.5576°
Altitude
476.013 km
Speed
7.629 km/s
True Right ascension
17h 47m 12s
True Declination
0° 00' 00"
Sunlit
Object was in full shadow at epoch
Visualization orbit readout
Latitude
Unknown
Longitude
Unknown
Altitude
Unknown
Speed
Unknown
Apparent Right ascension
Unknown
Apparent Declination
Unknown
Sunlit
N/A
Visualization observer readout
Local Sidereal Time
21:32:39
Azimuth
Unknown
Elevation
Unknown
Doppler factor
Unknown
Orbital elements
Apogee altitude
476.187 km
Perigee altitude
474.764 km
Semi-major axis
6,853.613 km
Eccentricity
0.0001
Inclination
53.1612°
RAAN
266.8039°
Arg. of periapsis
81.5008°
True anomaly
278.59924°
Mean anomaly
278.611°
Eccentric anomaly
278.60512°
Mean motion
3.82529 °/min
Orbital period
94.11 mins
BSTAR
0.0000096445
Loading maneuver chart data...
Computing Atmospheric mass density...
Loading historical data...
Loading historical data...
Loading historical data...
Loading historical data...
Loading historical data...
Loading historical data...
Loading historical data...

Documentation

Showing up to 5 results
|